Location: Ferchesar
(52.6477°N, 12.4298°E)
Time: 18:37:59
(UTC+01:00)

Transit 4A - Pass Details

Date: 11 December 2021
Orbit: 864 x 980 km, 66.8° (Epoch: 16 January)

Event Time Altitude Azimuth Distance (km) Brightness Sun altitude
Rises 20:27:51 0° 265° (W) 3,507 11.7 -39.8°
Reaches altitude 10° 20:30:40 10° 276° (W) 2,587 10.9 -40.2°
Enters shadow 20:34:06 25° 308° (NW) 1,755 9.7 -40.7°
